Regional Weather Roundup
Issued by NWS

Home | Current Version | Previous Version | Graphics & Text | Print | Product List | Glossary Off
Versions: 1 2 3 4 5 6 7 8 9 10 11 12 13 14 15 16 17 18 19 20 21 22 23 24 25 26 27 28 29 30 31 32 33 34 35 36 37 38 39 40 41 42 43 44 45 46 47 48 49 50

000
ASUS45 KCYS 012110
RWRWY

WYOMING REGIONAL WEATHER ROUNDUP
NATIONAL WEATHER SERVICE CHEYENNE WY
300 PM MDT MON SEP 01 2014

NOTE:  "FAIR" INDICATES FEW OR NO CLOUDS BELOW 12,000 FEET
WITH NO SIGNIFICANT WEATHER AND/OR OBSTRUCTIONS TO VISIBILITY.

WYZ001-012200-
YELLOWSTONE NATIONAL PARK

CITY           SKY/WX    TMP DP  RH WIND       PRES   REMARKS
LK YELLOWSTONE   N/A     54  32  43 VRB7      30.20S
W YELLOWSTONE  NOT AVBL

$$
WYZ002>013-054>058-071-098>099-012200-
NORTHERN WYOMING

CITY           SKY/WX    TMP DP  RH WIND       PRES   REMARKS
JACKSON        PTSUNNY   63  30  29 SW7       30.14S
CODY             N/A    N/A N/A N/A MISG        N/A
GREYBULL       SUNNY     70  40  33 NW9       29.97F
WORLAND        SUNNY     71  43  36 VRB6      29.97F
SHERIDAN       MOSUNNY   64  45  49 SE6       29.99F
BUFFALO        MOSUNNY   59  44  57 CALM      30.04F
GILLETTE       LGT RAIN  52  46  80 NW23G33   30.03S
HULETT         CLOUDY    59  41  51 MISG      30.00
NEWCASTLE      FAIR      61  43  51 N8        29.99

$$
WYZ014>020-022>026-101>103-012200-
CENTRAL WYOMING

CITY           SKY/WX    TMP DP  RH WIND       PRES   REMARKS
BIG PINEY      SUNNY     67  27  22 NW14      30.16S
PINEDALE       CLEAR     63  30  29 NW15G21   30.17R
DUBOIS         CLOUDY    63  28  27 NW17G24   30.11F
LANDER         SUNNY     72  31  22 N3        30.01F
RIVERTON       PTSUNNY   72  27  18 NW10      30.01F
CASPER         MOSUNNY   72  38  29 NW14      30.00S
DOUGLAS        MOSUNNY   68  46  45 N15G22    29.99S

$$
WYZ021-027>030-104>119-012200-
SOUTHERN WYOMING

CITY           SKY/WX    TMP DP  RH WIND       PRES   REMARKS
EVANSTON       MOSUNNY   68  32  26 W22G30    30.20S
KEMMERER       CLEAR     64  30  27 W21G28    30.20S
FORT BRIDGER   FAIR      71  32  24 W20G28    30.21S
ROCK SPRINGS   SUNNY     70  29  21 W29G39    30.13F
DIXON          MOCLDY    70  36  28 W16G26    30.14F
RAWLINS        MOSUNNY   70  27  20 W24G37    30.09S
SARATOGA       MOCLDY    68  32  26 W21G32    30.12F
LARAMIE        MOSUNNY   67  32  27 W25G38    30.09F
CHEYENNE       MOSUNNY   75  31  19 W21G32    30.03F
TORRINGTON     MOSUNNY   78  38  23 NW14      29.90F
PINE BLUFFS    FAIR      73  32  21 NW16G24   29.99F

$$


USA.gov is the U.S. government's official web portal to all federal, state and local government web resources and services.